Flag Weather past 2 weeks in Amsterdam, Netherlands

Now
59 °F

Fog.


Feels Like: 57 °F
Forecast: 51 / 60 °F
Wind: 13 mph from South

Location: Amsterdam Schiphol Airport

Current Time: Oct 30, 2014 at 3:55:09 PM

Latest Report: Oct 30, 2014 at 3:25 PM


Visibility: 3 mi

Pressure: 30.12 "Hg

Humidity: 94%

Dew point: 57 °F

Location of AmsterdamLocation

Historic Weather in Amsterdam — Graph

°F

Amsterdam temperature yesterday

Maximum temperature yesterday: 57 °F (at 11:55 AM)
Minimum temperature yesterday: 48 °F (at 2:55 AM)
Average temperature yesterday: 52 °F

Past Weeks' High & Low Weather Summary

 TemperatureHumidityPressure
High72 °F (Oct 18, 3:55 PM)100% (Oct 15, 11:55 PM)30.21 "Hg (Oct 15, 11:55 PM)
Low46 °F (Oct 22, 4:55 AM)6% (Oct 21, 5:25 PM)29.42 "Hg (Oct 21, 1:25 PM)
Average56 °F88%29.97 "Hg
* Reported Oct 15 3:25 PM — Oct 30 2:55 PM, Amsterdam, Weather by CustomWeather, © 2014

Note: Actual official high and low records may vary slightly from our data, if they occured in-between our weather recording intervals... More about our weather records

Advertising

Amsterdam weather history for previous 24 hours

 ConditionsComfort  
Time TempWeatherWind HumidityBarometerVisibility
2:55 PM
Oct 30
59 °FFog.10 mph94%30.12 "Hg3 mi
2:25 PM59 °FLight rain. Fog.12 mph94%30.12 "Hg3 mi
1:55 PM59 °FFog.10 mph94%30.15 "Hg2 mi
1:25 PM57 °FFog.9 mph100%30.15 "Hg2 mi
12:55 PM57 °FFog.12 mph94%30.15 "Hg2 mi
12:25 PM57 °FFog.10 mph94%30.15 "Hg2 mi
11:55 AM55 °FFog.9 mph100%30.15 "Hg2 mi
11:25 AM55 °FLight rain. Fog.12 mph100%30.15 "Hg3 mi
10:55 AM55 °FLight rain. Fog.9 mph94%30.15 "Hg3 mi
10:25 AM55 °FFog.7 mph94%30.15 "Hg3 mi
9:55 AM54 °FFog.8 mph100%30.15 "Hg2 mi
9:25 AM54 °FFog.9 mph100%30.15 "Hg1 mi
8:55 AM54 °FFog.8 mph100%30.15 "Hg1 mi
8:25 AM54 °FFog.6 mph100%30.15 "Hg3 mi
7:55 AM54 °FFog.8 mph100%30.15 "Hg3 mi
7:25 AM54 °FFog.8 mph100%30.15 "Hg3 mi
6:55 AM54 °FFog.8 mph100%30.15 "Hg3 mi
6:25 AM54 °FFog.7 mph100%30.15 "Hg3 mi
5:55 AM54 °FFog.6 mph100%30.15 "Hg3 mi
5:25 AM54 °FFog.7 mph94%30.12 "Hg3 mi
4:55 AM54 °FFog.6 mph100%30.12 "Hg3 mi
4:25 AM52 °FFog.5 mph100%30.15 "Hg2 mi
3:55 AM52 °FFog.3 mph100%30.15 "Hg2 mi
3:25 AM52 °FFog.5 mph100%30.12 "Hg2 mi
2:55 AM52 °FFog.6 mph100%30.12 "Hg2 mi
2:25 AM52 °FFog.7 mph100%30.12 "Hg2 mi
1:55 AM52 °FFog.7 mph100%30.12 "Hg2 mi
1:25 AM52 °FFog.5 mph100%30.15 "Hg2 mi
12:55 AM52 °FDrizzle. Fog.5 mph100%30.12 "Hg2 mi
12:25 AM52 °FDrizzle. Fog.6 mph100%30.12 "Hg2 mi
11:55 PM
Oct 29
52 °FFog.7 mph100%30.12 "Hg3 mi
11:25 PM52 °FFog.6 mph100%30.12 "Hg3 mi
10:55 PM52 °FFog.8 mph100%30.12 "Hg3 mi
10:25 PM52 °FMostly cloudy.7 mph100%30.12 "Hg4 mi
9:55 PM52 °FOvercast.8 mph100%30.12 "HgN/A
9:25 PM52 °FPartly cloudy.8 mph100%30.12 "HgN/A
8:55 PM52 °FMostly cloudy.12 mph100%30.09 "HgN/A
8:25 PM54 °FOvercast.9 mph94%30.09 "HgN/A
7:55 PM54 °FPartly cloudy.9 mph94%30.09 "HgN/A
7:25 PM54 °FPartly cloudy.12 mph94%30.09 "HgN/A
6:55 PM54 °FPartly cloudy.9 mph88%30.09 "HgN/A
6:25 PM54 °FPartly cloudy.10 mph94%30.09 "HgN/A
5:55 PM54 °FPartly cloudy.8 mph94%30.07 "HgN/A
5:25 PM54 °FPartly cloudy.9 mph94%30.07 "HgN/A
4:55 PM54 °FMostly cloudy.9 mph94%30.07 "HgN/A
4:25 PM55 °FBroken clouds.10 mph88%30.04 "HgN/A
3:55 PM55 °FBroken clouds.13 mph88%30.04 "HgN/A
3:25 PM55 °FBroken clouds.9 mph94%30.04 "HgN/A
Weather by CustomWeather, © 2014

See weather overviewHow to use our weather pages